Volk, WI

9:17 AM CDT on July 20, 2017 (GMT -0500)
Volk

Weather History for KVOK - March, 2012

Change the Weather History Date:

Wednesday, March 7, 2012

  Actual Average Record
Temperature  
Mean Temperature 48 °F -  
Max Temperature 59 °F 31 °F 66 °F (2016)
Min Temperature 35 °F 19 °F -8 °F (2008)
Degree Days  
Heating Degree Days 17    
Moisture  
Dew Point 45 °F    
Average Humidity 80    
Maximum Humidity 100    
Minimum Humidity 49    
Precipitation  
Precipitation 0.05 in - - ()
Sea Level Pressure  
Sea Level Pressure 29.70 in    
Wind  
Wind Speed 13 mph (SW)    
Max Wind Speed 23 mph    
Max Gust Speed 30 mph    
Visibility 10 miles    
Events Rain    
Averages and records for this station are not official NWS values.
T = Trace of Precipitation, MM = Missing Value Source: NWS Daily Summary

Daily Weather History Graph

Daily Weather History Graph

Search for Another Location

Airport or City:

Trip Planner

Search our weather history database for the weather conditions in past years. The results will help you decide how hot, cold, wet, or windy it might be!

Date:

Astronomy

Mar. 07, 2012 Rise Set
Actual Time 6:26 AM CST 5:57 PM CST
Civil Twilight 5:57 AM CST 6:26 PM CST
Nautical Twilight 5:24 AM CST 7:00 PM CST
Astronomical Twilight 4:51 AM CST 7:33 PM CST
Moon 5:35 PM CST (3/7) 5:37 AM CST (3/7)
Length of Visible Light 12h 28m
Length of Day
11h 31m
Waxing Gibbous, 99% of the Moon is Illuminated
Mar 7
Waxing Gibbous
Mar 8
Full
Mar 14
Last Quarter
Mar 22
New
Mar 30
First Quarter

Hourly Weather History & Observations

Time (CST) Temp. Windchill Dew Point Humidity Pressure Visibility Wind Dir Wind Speed Gust Speed Precip Events Conditions
12:55 AM 56.5 °F - 37.6 °F 49% 29.74 in 10.0 mi SSW 13.8 mph 25.3 mph N/A   Clear
1:55 AM 53.4 °F - 37.0 °F 54% 29.75 in 10.0 mi South 8.1 mph - N/A   Clear
2:55 AM 53.6 °F - 36.1 °F 52% 29.73 in 10.0 mi South 8.1 mph - N/A   Clear
3:55 AM 52.0 °F - 37.4 °F 58% 29.73 in 10.0 mi South 8.1 mph - N/A   Scattered Clouds
4:55 AM 51.8 °F - 38.8 °F 61% 29.72 in 10.0 mi South 10.4 mph - N/A   Clear
5:55 AM 52.7 °F - 39.7 °F 61% 29.71 in 10.0 mi South 13.8 mph - N/A   Partly Cloudy
6:55 AM 53.6 °F - 41.0 °F 62% 29.72 in 10.0 mi South 10.4 mph 20.7 mph N/A   Overcast
7:55 AM 53.6 °F - 42.8 °F 67% 29.70 in 10.0 mi South 18.4 mph 25.3 mph N/A   Overcast
8:55 AM 55.4 °F - 44.6 °F 67% 29.69 in 10.0 mi South 16.1 mph 24.2 mph N/A   Overcast
9:55 AM 55.4 °F - 44.6 °F 67% 29.68 in 10.0 mi South 18.4 mph 29.9 mph N/A   Overcast
10:55 AM 57.2 °F - 46.4 °F 67% 29.67 in 10.0 mi South 13.8 mph 26.5 mph N/A   Overcast
11:55 AM 57.2 °F - 46.4 °F 67% 29.65 in 10.0 mi South 8.1 mph - N/A   Overcast
12:55 PM 59.0 °F - 48.2 °F 67% 29.63 in 10.0 mi SSW 12.7 mph 18.4 mph N/A   Overcast
1:55 PM 59.0 °F - 50.0 °F 72% 29.62 in 10.0 mi SSW 13.8 mph 27.6 mph N/A   Overcast
2:55 PM 59.0 °F - 51.8 °F 77% 29.62 in 10.0 mi SSW 13.8 mph 24.2 mph N/A   Overcast
3:27 PM 59.0 °F - 53.6 °F 82% 29.61 in 10.0 mi SSW 16.1 mph 23.0 mph N/A Rain Light Rain
3:37 PM 59.0 °F - 53.6 °F 82% 29.61 in 10.0 mi SSW 13.8 mph 21.9 mph N/A   Overcast
3:55 PM 59.0 °F - 53.6 °F 82% 29.61 in 10.0 mi SSW 12.7 mph 27.6 mph N/A   Overcast
4:09 PM 59.0 °F - 53.6 °F 82% 29.60 in 10.0 mi SSW 15.0 mph 23.0 mph N/A Rain Light Rain
4:55 PM 55.4 °F - 55.4 °F 100% 29.64 in 10.0 mi WSW 13.8 mph - N/A Rain Light Rain
5:20 PM 55.4 °F - 55.4 °F 100% 29.63 in 10.0 mi West 9.2 mph - N/A   Light Drizzle
5:55 PM 53.6 °F - 53.6 °F 100% 29.64 in 10.0 mi SW 12.7 mph - N/A Rain Light Rain
6:17 PM 53.6 °F - 53.6 °F 100% 29.63 in 10.0 mi SW 12.7 mph - N/A   Overcast
6:55 PM 46.4 °F 39.2 °F 46.4 °F 100% 29.69 in 10.0 mi West 18.4 mph 25.3 mph N/A   Overcast
7:55 PM 41.0 °F 31.1 °F 41.0 °F 100% 29.75 in 10.0 mi West 23.0 mph 29.9 mph N/A   Overcast
8:23 PM 39.2 °F 29.3 °F 39.2 °F 100% 29.75 in 10.0 mi NW 20.7 mph - N/A   Overcast
8:31 PM 39.2 °F 30.8 °F 39.2 °F 100% 29.75 in 10.0 mi NW 15.0 mph - N/A   Overcast
8:55 PM 37.4 °F 31.4 °F 37.4 °F 100% 29.77 in 10.0 mi WNW 8.1 mph - N/A   Overcast
9:55 PM 37.4 °F 30.3 °F 37.4 °F 100% 29.80 in 10.0 mi WNW 10.4 mph - N/A   Overcast
10:10 PM 37.4 °F 29.3 °F 37.4 °F 100% 29.81 in 10.0 mi WNW 12.7 mph - N/A   Overcast
10:55 PM 37.4 °F 29.3 °F 37.4 °F 100% 29.81 in 10.0 mi WNW 12.7 mph - N/A   Overcast
11:55 PM 35.6 °F 29.2 °F 35.6 °F 100% 29.83 in 10.0 mi WNW 8.1 mph - N/A   Overcast